Charlevoix, MI

1:16 AM EST on February 08, 2016 (GMT -0500)
Charlevoix Municipal

Weather History for KCVX - June, 2013

Change the Weather History Date:

Sunday, June 16, 2013

  Actual Average Record
Temperature  
Mean Temperature 65 °F -  
Max Temperature 76 °F 72 °F 87 °F (2012)
Min Temperature 54 °F 59 °F 46 °F (2003)
Growing Degree Days 15 (Base 50)    
Moisture  
Dew Point 58 °F    
Average Humidity 89    
Maximum Humidity 100    
Minimum Humidity 56    
Precipitation  
Precipitation 0.00 in - - ()
Sea Level Pressure  
Sea Level Pressure 29.83 in    
Wind  
Wind Speed 6 mph (WSW)    
Max Wind Speed 18 mph    
Max Gust Speed 29 mph    
Visibility 6 miles    
Events Fog , Rain    
Averages and records for this station are not official NWS values.
T = Trace of Precipitation, MM = Missing Value Source: NWS Daily Summary

Daily Weather History Graph

Daily Weather History Graph

Search for Another Location

Airport or City:

Trip Planner

Search our weather history database for the weather conditions in past years. The results will help you decide how hot, cold, wet, or windy it might be!

Date:

Astronomy

Jun. 16, 2013 Rise Set
Actual Time 5:52 AM EDT 9:31 PM EDT
Civil Twilight 5:14 AM EDT 10:09 PM EDT
Nautical Twilight 4:24 AM EDT 10:59 PM EDT
Astronomical Twilight 3:17 AM EDT 12:07 AM EDT
Moon 1:48 PM EDT (6/16) 1:16 AM EDT (6/16)
Length of Visible Light 16h 54m
Length of Day
15h 38m
Waxing Crescent, 49% of the Moon is Illuminated
Jun 16
Waxing Crescent
Jun 16
First Quarter
Jun 23
Full
Jun 30
Last Quarter
Jul 8
New

Hourly Weather History & Observations

Time (EDT) Temp. Dew Point Humidity Pressure Visibility Wind Dir Wind Speed Gust Speed Precip Events Conditions
12:14 AM 57.2 °F 56.8 °F 99% 29.87 in 3.0 mi Calm Calm - N/A Rain Light Rain
12:34 AM 58.3 °F 58.1 °F 99% 29.87 in 4.0 mi West 3.5 mph - N/A Rain Light Rain
12:54 AM 58.6 °F 58.6 °F 100% 29.87 in 2.5 mi West 5.8 mph - N/A Rain Rain
1:14 AM 57.7 °F 57.7 °F 100% 29.87 in 3.0 mi WSW 9.2 mph - N/A Rain Rain
1:34 AM 58.8 °F 58.8 °F 100% 29.86 in 3.0 mi WSW 9.2 mph - N/A Rain Heavy Rain
1:54 AM 59.9 °F 59.9 °F 100% 29.84 in 4.0 mi SW 5.8 mph - N/A Rain Heavy Rain
2:14 AM 60.6 °F 60.6 °F 100% 29.82 in 5.0 mi SE 8.1 mph - N/A Rain Heavy Rain
2:35 AM 60.6 °F 60.6 °F 100% 29.78 in 7.0 mi ESE 4.6 mph - N/A Rain Light Rain
2:54 AM 60.8 °F 60.8 °F 100% 29.77 in 10.0 mi SE 6.9 mph - N/A Rain Rain
3:14 AM 61.2 °F 61.2 °F 100% 29.79 in 10.0 mi Calm Calm - N/A   Overcast
3:35 AM 61.3 °F 61.3 °F 100% 29.79 in 10.0 mi Calm Calm - N/A   Overcast
3:54 AM 60.8 °F 60.8 °F 100% 29.79 in 5.0 mi NNW 5.8 mph - N/A   Overcast
4:14 AM 59.0 °F 59.0 °F 100% 29.80 in 4.0 mi WNW 8.1 mph - N/A   Overcast
4:35 AM 58.1 °F 58.1 °F 100% 29.81 in 1.8 mi WNW 9.2 mph - N/A   Overcast
4:54 AM 54.7 °F 54.7 °F 100% 29.82 in 0.5 mi NW 8.1 mph - N/A Fog Fog
5:14 AM 54.5 °F 54.5 °F 100% 29.81 in 0.2 mi WNW 3.5 mph - N/A Fog Fog
5:34 AM 55.8 °F 55.8 °F 100% 29.81 in 0.5 mi West 3.5 mph - N/A Fog Fog
5:54 AM 55.6 °F 55.6 °F 100% 29.80 in 0.2 mi WSW 3.5 mph - N/A Fog Fog
6:15 AM 55.9 °F 55.9 °F 100% 29.80 in 0.2 mi Calm Calm - N/A Fog Fog
6:34 AM 56.5 °F 56.5 °F 100% 29.80 in 0.2 mi Calm Calm - N/A Fog Fog
6:54 AM 56.7 °F 56.7 °F 100% 29.81 in 0.2 mi Calm Calm - N/A Fog Fog
7:15 AM 57.2 °F 57.2 °F 100% 29.81 in 0.8 mi SW 3.5 mph - N/A   Overcast
7:34 AM 57.2 °F 57.2 °F 100% 29.81 in 1.2 mi SW 4.6 mph - N/A   Overcast
7:54 AM 57.2 °F 57.2 °F 100% 29.81 in 0.2 mi West 6.9 mph - N/A Fog Fog
8:15 AM 56.7 °F 56.7 °F 100% 29.81 in 0.2 mi Calm Calm - N/A Fog Fog
8:34 AM 58.1 °F 58.1 °F 100% 29.82 in 1.0 mi WSW 5.8 mph - N/A   Overcast
8:54 AM 57.9 °F 57.9 °F 100% 29.82 in 0.5 mi West 9.2 mph - N/A Fog Fog
9:14 AM 57.7 °F 57.7 °F 100% 29.83 in 0.2 mi WSW 9.2 mph - N/A Fog Fog
9:34 AM 57.4 °F 57.4 °F 100% 29.83 in 0.2 mi SW 8.1 mph - N/A Fog Fog
9:55 AM 58.3 °F 58.3 °F 100% 29.83 in 0.5 mi WSW 5.8 mph - N/A Fog Fog
10:14 AM 59.0 °F 59.0 °F 100% 29.83 in 0.5 mi SW 10.4 mph - N/A Fog Fog
10:34 AM 59.9 °F 59.9 °F 100% 29.84 in 7.0 mi West 9.2 mph - N/A   Overcast
10:55 AM 60.1 °F 60.1 °F 100% 29.83 in 3.0 mi WSW 9.2 mph - N/A   Overcast
11:14 AM 61.3 °F 61.3 °F 100% 29.83 in 2.0 mi WSW 8.1 mph - N/A   Overcast
11:34 AM 62.6 °F 62.6 °F 100% 29.82 in 2.5 mi WSW 9.2 mph - N/A   Overcast
11:55 AM 63.5 °F 63.5 °F 100% 29.82 in 7.0 mi WSW 8.1 mph - N/A   Overcast
12:14 PM 64.4 °F 63.7 °F 98% 29.82 in 10.0 mi SSW 8.1 mph - N/A   Overcast
12:34 PM 64.4 °F 63.5 °F 97% 29.82 in 10.0 mi SW 9.2 mph - N/A   Overcast
12:54 PM 64.6 °F 63.3 °F 96% 29.82 in 10.0 mi SW 8.1 mph - N/A   Overcast
1:14 PM 66.0 °F 63.9 °F 93% 29.82 in 10.0 mi WSW 12.7 mph 18.4 mph N/A   Overcast
1:34 PM 67.5 °F 64.2 °F 89% 29.82 in 10.0 mi SW 10.4 mph 17.3 mph N/A   Overcast
1:54 PM 69.4 °F 63.5 °F 81% 29.82 in 10.0 mi WSW 10.4 mph - N/A   Mostly Cloudy
2:14 PM 70.7 °F 61.5 °F 73% 29.82 in 10.0 mi SW 11.5 mph 17.3 mph N/A   Clear
2:35 PM 71.4 °F 60.8 °F 69% 29.81 in 10.0 mi WSW 12.7 mph 18.4 mph N/A   Clear
2:54 PM 71.8 °F 60.8 °F 68% 29.81 in 10.0 mi SW 12.7 mph 18.4 mph N/A   Clear
3:14 PM 72.9 °F 61.9 °F 68% 29.81 in 10.0 mi SW 13.8 mph 20.7 mph N/A   Clear
3:35 PM 72.9 °F 61.0 °F 66% 29.81 in 10.0 mi SW 11.5 mph 20.7 mph N/A   Clear
3:54 PM 73.6 °F 60.1 °F 63% 29.81 in 10.0 mi SW 15.0 mph 18.4 mph N/A   Clear
4:14 PM 73.8 °F 59.2 °F 60% 29.81 in 10.0 mi SW 12.7 mph - N/A   Clear
4:35 PM 74.3 °F 59.5 °F 60% 29.81 in 10.0 mi SW 12.7 mph 21.9 mph N/A   Clear
4:54 PM 75.0 °F 59.7 °F 59% 29.81 in 10.0 mi SW 12.7 mph 20.7 mph N/A   Clear
5:14 PM 76.6 °F 59.9 °F 56% 29.81 in 10.0 mi WSW 17.3 mph 23.0 mph N/A   Scattered Clouds
5:35 PM 68.4 °F 57.9 °F 69% 29.83 in 10.0 mi West 9.2 mph - N/A   Mostly Cloudy
5:54 PM 71.2 °F 58.8 °F 65% 29.83 in 10.0 mi West 9.2 mph - N/A   Mostly Cloudy
6:14 PM 67.8 °F 57.0 °F 68% 29.85 in 10.0 mi WNW 18.4 mph 28.8 mph N/A   Mostly Cloudy
6:34 PM 65.5 °F 57.9 °F 77% 29.84 in 10.0 mi WSW 11.5 mph - N/A   Mostly Cloudy
6:54 PM 64.6 °F 57.9 °F 79% 29.84 in 10.0 mi West 10.4 mph - N/A   Mostly Cloudy
7:14 PM 64.6 °F 57.2 °F 77% 29.85 in 10.0 mi West 8.1 mph - N/A   Overcast
7:34 PM 64.9 °F 57.0 °F 75% 29.84 in 10.0 mi NW 5.8 mph - N/A   Mostly Cloudy
7:54 PM 59.9 °F 54.9 °F 83% 29.84 in 10.0 mi WNW 6.9 mph - N/A   Scattered Clouds
8:14 PM 60.6 °F 55.2 °F 82% 29.84 in 10.0 mi West 3.5 mph - N/A   Clear
8:34 PM 60.8 °F 55.6 °F 83% 29.84 in 10.0 mi WSW 5.8 mph - N/A   Clear
8:54 PM 60.4 °F 55.8 °F 85% 29.83 in 10.0 mi SW 3.5 mph - N/A   Scattered Clouds
9:14 PM 59.9 °F 55.6 °F 86% 29.83 in 10.0 mi Calm Calm - N/A   Clear
9:34 PM 59.0 °F 55.4 °F 88% 29.84 in 10.0 mi WSW 4.6 mph - N/A   Clear
9:55 PM 59.0 °F 55.0 °F 87% 29.85 in 10.0 mi West 6.9 mph - N/A   Scattered Clouds
10:14 PM 59.2 °F 54.9 °F 86% 29.88 in 10.0 mi WNW 9.2 mph - N/A   Mostly Cloudy
10:34 PM 55.4 °F 52.3 °F 89% 29.89 in 10.0 mi North 3.5 mph - N/A   Overcast
10:55 PM 56.1 °F 53.1 °F 89% 29.87 in 10.0 mi NNE 4.6 mph - N/A   Scattered Clouds
11:14 PM 58.5 °F 54.1 °F 86% 29.87 in 10.0 mi Calm Calm - N/A   Clear
11:34 PM 56.5 °F 53.8 °F 91% 29.86 in 10.0 mi Calm Calm - N/A   Clear
11:55 PM 55.6 °F 54.1 °F 95% 29.88 in 10.0 mi Calm Calm - N/A   Clear